Location: Denver
(39.7392°N, 104.9903°W)
Time: 00:45:20
(UTC-07:00)

ISS - Pass Details

Date: 04 June 2018
Orbit: 411 x 421 km, 51.6° (Epoch: 10 December)

Event Time Altitude Azimuth Distance (km) Brightness Sun altitude
Rises 22:31:50 0° 287° (WNW) 2,344 0.9 -19.0°
Reaches altitude 10° 22:35:08 10° 251° (WSW) 1,471 -0.8 -19.3°
Maximum altitude 22:36:14 11° 232° (SW) 1,393 -1.2 -19.4°
Enters shadow 22:36:16 11° 231° (SW) 1,393 -1.2 -19.4°
